sat.trackr.live / text

‹ back to catalog

STARLINK-36445

NORAD 67313 · 2026-002J

PAYLOAD ACTIVE UNKNOWN

§ Identity

Operator
Country
US
Launch date
2026-01-04
Launch site
AFETR
Launch vehicle
Mass (kg)
RCS (m²)

Purposes: comms

External: N2YO · Heavens-Above · Gunter

§ Orbital elements

Epoch: 2026-09-18T04:16:48.112896Z

Period
94.27 min
Inclination
43.0001°
Eccentricity
0.0001176
Mean motion
15.27594382 rev/d
Perigee alt
482.2 km
Apogee alt
483.8 km
Semi-major
6,861.1 km
B*
2.6437e-4
RAAN
318.5364°
Arg perigee
279.5726°
Mean anomaly
80.4993°
Rev number
4,067

§ Raw data

STARLINK-364451 67313U 26002J   26261.17833464  .00007023  00000+0  26437-3 0  99992 67313  43.0001 318.5364 0001176 279.5726  80.4993 15.27594382 40679

JSON: /api/v1/satellites/67313 · /tle

For live sub-satellite position, see the globe view (requires WebGL).

§ Visibility from observer

Set your observer location to see the next 7 days of passes ≥ 10°. The values pass through the URL so the page stays shareable.

No JS? Fill the form by hand. The geolocation button needs JavaScript.